Change the Weather History Date:

Tuesday, May 13, 2014

  Actual Average Record
Temperature  
Mean Temperature 66 °F -  
Max Temperature 83 °F 63 °F 91 °F (1939)
Min Temperature 50 °F 45 °F 36 °F (1955)
Cooling Degree Days 2    
Growing Degree Days 16 (Base 50)    
Moisture  
Dew Point 55 °F    
Average Humidity 67    
Maximum Humidity 100    
Minimum Humidity 37    
Precipitation  
Precipitation 0.00 in - - ()
Sea Level Pressure  
Sea Level Pressure 30.15 in    
Wind  
Wind Speed 3 mph (SSE)    
Max Wind Speed 7 mph    
Max Gust Speed -    
Visibility 8 miles    
Events Rain    
Averages and records for this station are not official NWS values.
T = Trace of Precipitation, MM = Missing Value Source: NWS Daily Summary

Daily Weather History Graph

Daily Weather History Graph

Search for Another Location

Airport or City:

Trip Planner

Search our weather history database for the weather conditions in past years. The results will help you decide how hot, cold, wet, or windy it might be!

Date:

Astronomy

May. 13, 2014 Rise Set
Actual Time 5:58 AM PDT 8:29 PM PDT
Civil Twilight 5:26 AM PDT 9:01 PM PDT
Nautical Twilight 4:47 AM PDT 9:40 PM PDT
Astronomical Twilight 4:02 AM PDT 10:25 PM PDT
Moon 7:35 PM PDT (5/13) 5:20 AM PDT (5/13)
Length of Visible Light 15h 34m
Length of Day
14h 30m
Waxing Gibbous, 99% of the Moon is Illuminated
May 13
Waxing Gibbous
May 14
Full
May 21
Last Quarter
May 28
New
Jun 5
First Quarter

Hourly Weather History & Observations

Time (PDT) Temp. Heat Index Dew Point Humidity Pressure Visibility Wind Dir Wind Speed Gust Speed Precip Events Conditions
12:56 AM 54.0 °F - 52.0 °F 93% 30.18 in 8.0 mi Calm Calm - N/A   Clear
1:56 AM 54.9 °F - 52.9 °F 93% 30.18 in 8.0 mi North 3.5 mph - N/A   Clear
2:56 AM 52.9 °F - 52.0 °F 97% 30.19 in 8.0 mi NNW 4.6 mph - N/A   Clear
3:56 AM 52.0 °F - 50.9 °F 96% 30.18 in 8.0 mi Calm Calm - N/A   Clear
4:56 AM 50.9 °F - 50.9 °F 100% 30.18 in 7.0 mi Calm Calm - N/A   Clear
9:56 AM 70.9 °F - 54.0 °F 55% 30.17 in 8.0 mi Variable 3.5 mph - N/A   Clear
10:56 AM 72.9 °F - 56.8 °F 57% 30.17 in 7.0 mi SE 4.6 mph - N/A   Clear
11:56 AM 72.9 °F - 56.8 °F 57% 30.17 in 4.0 mi WNW 4.6 mph - N/A   Haze
12:56 PM 77.9 °F - 59.0 °F 52% 30.17 in 7.0 mi Variable 3.5 mph - N/A   Clear
1:56 PM 79.9 °F - 57.9 °F 47% 30.16 in 7.0 mi SSW 4.6 mph - N/A   Clear
2:56 PM 79.9 °F - 55.9 °F 44% 30.15 in 8.0 mi Variable 3.5 mph - 0.00 in   Clear
3:56 PM 83.8 °F 82.7 °F 54.9 °F 37% 30.14 in 8.0 mi West 5.8 mph - N/A   Clear
4:56 PM 77.9 °F - 55.9 °F 47% 30.13 in 7.0 mi SSE 5.8 mph - N/A   Clear
6:56 PM 77.9 °F - 57.9 °F 50% 30.10 in 8.0 mi Calm Calm - 0.00 in Rain Light Rain
7:56 PM 74.8 °F - 57.9 °F 55% 30.10 in 8.0 mi SE 3.5 mph - 0.00 in   Clear
8:56 PM 70.9 °F - 55.9 °F 59% 30.11 in 10.0 mi East 4.6 mph - N/A   Clear
9:56 PM 64.9 °F - 55.9 °F 73% 30.13 in 8.0 mi SE 6.9 mph - 0.00 in Rain Light Rain
10:56 PM 63.0 °F - 54.9 °F 75% 30.13 in 7.0 mi SSE 4.6 mph - 0.00 in   Clear
11:56 PM 63.0 °F - 55.9 °F 78% 30.13 in 9.0 mi SE 4.6 mph - N/A   Clear